[[{"header":{"parameterUnit":"m.s-1","parameterCategory":1,"la1":30.2991,"la2":30.254,"lo1":-89.0895,"lo2":-89.0444,"dx":0.0017,"dy":0.0017,"nx":28,"ny":28,"refTime":"2022-11-16T09:00:00:Z","depth":0,"parameterNumber":2,"parameterNumberName":"U-component_of_WINDS"},"data":[0,0,0,0,0,0,0,0,0,0,0,0,0,0,0,0,0,0,0,0,0,0,0,0,0,0,0,0,0,0,0,0,0,0,0,0,0,0,0,0,0,0,0,0,0,0,0,0,0,0,0,0,0,0,0,0,0,0,0.9411,0.9411,0,0.9384,0.9384,0.9383,0.9354,0.9353,0.9353,0.9352,0.9324,0.9323,0.9323,0,0,0,0,0,0,0,0,0,0,0,0,0,0.9437,0.9436,0.9411,0.9411,0.941,0.9384,0.9384,0.9383,0.9354,0.9353,0.9353,0.9352,0.9324,0.9323,0.9323,0,0,0,0,0,0,0,0,0,0,0,0,0,0.9419,0.9436,0.9411,0.9392,0.939,0.9384,0.9384,0.9383,0.9354,0.9353,0.9352,0.9352,0.9324,0.9323,0.9323,0.9333,0,0,0.9321,0.9321,0,0,0,0,0,0,0,0,0.942,0.9418,0.9395,0.9394,0.9391,0.9372,0.9382,0.9366,0.9354,0.9368,0.9352,0.9351,0.934,0.9338,0.9334,0.9331,0.933,0.9321,0.9321,0.9321,0.932,0,0,0,0,0,0,0,0.9421,0.9419,0.94,0.9395,0.9393,0.9385,0.9382,0.9379,0.9358,0.9366,0.9364,0.9361,0.9339,0.9335,0.9334,0.933,0.9321,0.9321,0.932,0.932,0.9334,0.9335,0,0,0,0,0,0,0.9426,0.942,0.9401,0.94,0.9405,0.9385,0.9382,0.9379,0.9358,0.9354,0.9362,0.936,0.9336,0.9334,0.9332,0.9343,0.9321,0.932,0.932,0.9333,0.9334,0.9335,0,0,0,0,0,0,0.9426,0.9424,0.9402,0.9409,0.9406,0.9386,0.9382,0.9378,0.9375,0.9354,0.935,0.9362,0.9336,0.9333,0.9333,0.9341,0.932,0.9319,0.9332,0.9333,0.9334,0.9364,0,0,0,0,0,0,0.9427,0.9425,0.9428,0.941,0.9406,0.9403,0.9383,0.9378,0.9374,0.9371,0.9353,0.935,0.9335,0.9334,0.9333,0.934,0.9319,0.9332,0.9333,0.9334,0.9362,0.9366,0.9369,0,0,0,0,0,0.9428,0.9437,0.9428,0.9426,0.941,0.9404,0.9402,0.9385,0.9375,0.9378,0.9365,0.935,0.9341,0.9334,0.9332,0.934,0.9331,0.9332,0.9334,0.936,0.9365,0.9369,0,0,0,0,0,0,0.9456,0.9434,0.9424,0.9427,0.9418,0.9399,0.9402,0.939,0.9383,0.938,0.9359,0.9356,0.9358,0.9349,0.9342,0.9349,0.9334,0.9335,0.9355,0.9359,0.9362,0.9364,0.9319,0,0,0,0,0,0.9463,0.946,0.9441,0.9446,0.9441,0.9423,0.942,0.9408,0.9397,0.9392,0.9379,0.9369,0.9364,0.9361,0.9355,0.9361,0.9357,0.9365,0.9369,0.9372,0.9373,0.9376,0.9379,0.934,0.934,0.934,0,0,0.9476,0.9464,0.9463,0.9451,0.9442,0.944,0.942,0.9418,0.9416,0.9392,0.9391,0.9382,0.9369,0.9372,0.9372,0.9364,0.9383,0.9373,0.9376,0.9375,0.9378,0.9381,0.9385,0.9341,0.9341,0.9341,0,0,0.95,0.949,0.9493,0.9485,0.9472,0.946,0.9461,0.9444,0.9437,0.9436,0.9418,0.9415,0.9407,0.9398,0.9393,0.9415,0.9401,0.9414,0.9431,0.9435,0.9438,0.944,0.9448,0.9451,0.9415,0.9415,0.9415,0,0.9518,0.9514,0.9496,0.9496,0.9491,0.947,0.9473,0.9466,0.9452,0.9449,0.944,0.9429,0.9419,0.942,0.9426,0.9422,0.9423,0.9415,0.9439,0.9441,0.9443,0.9451,0.9454,0.9417,0.9416,0.9416,0.9416,0,0.9537,0.9535,0.9539,0.9526,0.9522,0.9523,0.9506,0.9504,0.9492,0.9481,0.9481,0.9468,0.946,0.9459,0.9448,0.9459,0.9454,0.9443,0.9427,0.9449,0.9456,0.9458,0.9419,0.9418,0.9418,0.9417,0,0,0.9576,0.9555,0.9557,0.9551,0.9536,0.9533,0.9534,0.9526,0.9525,0.9516,0.9516,0.951,0.9499,0.9494,0.9481,0.9484,0.9503,0.9472,0.9471,0.9478,0.9515,0.9524,0.9527,0.9494,0.9494,0.9494,0.9516,0,0.9597,0.9597,0.9582,0.9586,0.9584,0.9565,0.9565,0.9556,0.9546,0.9543,0.9531,0.9527,0.9513,0.951,0.9512,0.95,0.951,0.9498,0.9493,0.9494,0.9497,0.953,0.954,0.956,0.9518,0.9519,0.9519,0,0.9621,0.9614,0.9618,0.9604,0.9602,0.9603,0.9595,0.9592,0.9582,0.9574,0.9568,0.9555,0.9554,0.954,0.954,0.9533,0.953,0.9524,0.9524,0.9523,0.9507,0.953,0.9566,0.9569,0.9523,0.9522,0.9522,0,0.9649,0.9641,0.9643,0.9639,0.9622,0.9623,0.9616,0.9605,0.9601,0.9594,0.9592,0.9585,0.9581,0.9576,0.9561,0.9552,0.9563,0.9547,0.9556,0.9557,0.9559,0.9559,0.9595,0.9558,0.9558,0.9558,0.9558,0,0.9674,0.9677,0.9656,0.9657,0.966,0.9643,0.9647,0.9638,0.9628,0.9627,0.961,0.961,0.959,0.9587,0.9575,0.9577,0.9575,0.9569,0.9566,0.9571,0.9572,0.9568,0.9567,0.9558,0.9558,0.9558,0.9558,0,0.9706,0.9691,0.9692,0.9676,0.9672,0.9676,0.9662,0.9663,0.9652,0.9651,0.965,0.9633,0.9629,0.9614,0.9606,0.9598,0.9604,0.9598,0.9607,0.9605,0.9616,0.9615,0.9651,0.9655,0.9615,0.9616,0.9616,0,0.9722,0.9724,0.9709,0.9708,0.9702,0.9699,0.9696,0.9679,0.9676,0.9665,0.9667,0.9662,0.9657,0.9651,0.9638,0.9633,0.9626,0.9639,0.9625,0.963,0.9626,0.9626,0.9627,0.9642,0.9643,0.9643,0.9643,0,0.9753,0.9746,0.9742,0.9736,0.9732,0.9727,0.972,0.9719,0.9701,0.9699,0.9695,0.9691,0.9684,0.9679,0.9671,0.9664,0.9651,0.9648,0.965,0.9655,0.966,0.9658,0.9616,0.9647,0.9647,0.9647,0.9646,0.9646,0.9777,0.9779,0.9769,0.9765,0.9758,0.9753,0.9753,0.9742,0.9739,0.9732,0.9722,0.972,0.971,0.9698,0.9692,0.969,0.9682,0.9685,0.9686,0.9687,0.9689,0.9661,0.9688,0.9688,0.9688,0.9688,0.9688,0,0.9807,0.98,0.9797,0.9788,0.9786,0.9774,0.9766,0.9765,0.9763,0.9755,0.9751,0.9747,0.9742,0.9729,0.9724,0.9725,0.9719,0.9724,0.9723,0.9722,0.9696,0.9695,0.9729,0.9729,0.9729,0.9729,0.9729,0.9729,0.9823,0.9825,0.9817,0.9816,0.9808,0.9806,0.9802,0.9797,0.9791,0.9787,0.9784,0.9776,0.9766,0.976,0.9755,0.9751,0.975,0.9757,0.9752,0.9728,0.9724,0.972,0.9719,0.9757,0.9757,0.9778,0.9778,0.9778]},{"header":{"parameterUnit":"m.s-1","parameterCategory":1,"la1":30.2991,"la2":30.254,"lo1":-89.0895,"lo2":-89.0444,"dx":0.0017,"dy":0.0017,"nx":28,"ny":28,"refTime":"2022-11-16T09:00:00:Z","depth":0,"parameterNumber":3,"parameterNumberName":"V-component_of_WINDS"},"data":[0,0,0,0,0,0,0,0,0,0,0,0,0,0,0,0,0,0,0,0,0,0,0,0,0,0,0,0,0,0,0,0,0,0,0,0,0,0,0,0,0,0,0,0,0,0,0,0,0,0,0,0,0,0,0,0,0,0,-4.6913,-4.6914,0,-4.7001,-4.7002,-4.7003,-4.695,-4.6948,-4.6945,-4.6943,-4.7029,-4.7034,-4.7038,0,0,0,0,0,0,0,0,0,0,0,0,0,-4.6698,-4.6702,-4.6913,-4.6914,-4.6915,-4.7001,-4.7002,-4.7003,-4.6951,-4.6948,-4.6945,-4.6942,-4.7028,-4.7033,-4.7039,0,0,0,0,0,0,0,0,0,0,0,0,0,-4.6789,-4.6703,-4.6913,-4.69,-4.6899,-4.7,-4.7002,-4.7003,-4.6951,-4.6948,-4.6944,-4.694,-4.7026,-4.7033,-4.704,-4.7158,0,0,-4.7061,-4.7064,0,0,0,0,0,0,0,0,-4.6784,-4.6797,-4.6901,-4.6901,-4.6901,-4.6961,-4.6957,-4.7055,-4.6952,-4.6932,-4.6943,-4.6938,-4.7009,-4.7017,-4.7042,-4.7162,-4.7165,-4.7061,-4.7066,-4.7069,-4.7071,0,0,0,0,0,0,0,-4.6777,-4.6793,-4.6948,-4.6902,-4.6902,-4.6888,-4.6897,-4.6976,-4.699,-4.6933,-4.6929,-4.6941,-4.7009,-4.7035,-4.7044,-4.7167,-4.7061,-4.7067,-4.7072,-4.7074,-4.7387,-4.7391,0,0,0,0,0,0,-4.6773,-4.6788,-4.6945,-4.695,-4.6832,-4.6895,-4.6905,-4.6945,-4.6989,-4.6992,-4.6944,-4.6938,-4.7025,-4.7035,-4.7046,-4.7187,-4.7069,-4.7075,-4.7079,-4.7383,-4.7388,-4.7392,0,0,0,0,0,0,-4.6768,-4.6787,-4.6941,-4.6868,-4.6887,-4.6903,-4.6948,-4.6949,-4.6976,-4.6998,-4.6999,-4.6969,-4.7023,-4.7037,-4.713,-4.7189,-4.7078,-4.7084,-4.7378,-4.7384,-4.739,-4.747,0,0,0,0,0,0,-4.6762,-4.6786,-4.6832,-4.687,-4.6891,-4.7025,-4.6952,-4.6953,-4.6988,-4.6981,-4.7021,-4.7024,-4.7021,-4.712,-4.7137,-4.7197,-4.709,-4.7372,-4.7381,-4.7388,-4.7462,-4.7478,-4.7492,0,0,0,0,0,-4.6755,-4.685,-4.6834,-4.6854,-4.6949,-4.7029,-4.7041,-4.7036,-4.6993,-4.7039,-4.7053,-4.7023,-4.718,-4.713,-4.7149,-4.7212,-4.7369,-4.7378,-4.7387,-4.7455,-4.7475,-4.7492,0,0,0,0,0,0,-4.6818,-4.6855,-4.6838,-4.6949,-4.6986,-4.702,-4.7077,-4.7057,-4.7106,-4.7098,-4.7088,-4.7098,-4.7195,-4.7213,-4.7157,-4.7328,-4.7268,-4.7281,-4.7313,-4.7332,-4.7346,-4.734,-4.7096,0,0,0,0,0,-4.6845,-4.6908,-4.6936,-4.7031,-4.7051,-4.7061,-4.7096,-4.7089,-4.7127,-4.7142,-4.7163,-4.72,-4.7257,-4.7295,-4.735,-4.7464,-4.7472,-4.7517,-4.7531,-4.7543,-4.7555,-4.7616,-4.7636,-4.7423,-4.7422,-4.7422,0,0,-4.6901,-4.6929,-4.6969,-4.7045,-4.7073,-4.7137,-4.7075,-4.7146,-4.7193,-4.7152,-4.7242,-4.7259,-4.73,-4.7404,-4.7451,-4.7422,-4.7616,-4.7555,-4.7565,-4.757,-4.7628,-4.7648,-4.7666,-4.7429,-4.7428,-4.7427,0,0,-4.7036,-4.7064,-4.7146,-4.7176,-4.722,-4.7226,-4.7245,-4.7283,-4.7292,-4.7383,-4.7353,-4.7409,-4.7509,-4.7539,-4.7567,-4.7713,-4.7688,-4.7731,-4.7809,-4.7869,-4.7885,-4.79,-4.7952,-4.7971,-4.7743,-4.7743,-4.7743,0,-4.71,-4.7197,-4.7191,-4.7264,-4.7298,-4.7265,-4.7347,-4.7376,-4.7435,-4.7459,-4.7425,-4.7549,-4.7574,-4.7685,-4.7721,-4.7745,-4.7766,-4.7727,-4.7884,-4.7899,-4.7912,-4.7962,-4.7981,-4.7748,-4.7747,-4.7747,-4.7746,0,-4.7273,-4.7341,-4.7402,-4.7461,-4.7501,-4.7579,-4.7583,-4.7625,-4.7614,-4.7623,-4.7715,-4.7744,-4.7803,-4.7829,-4.7819,-4.7939,-4.7919,-4.7885,-4.7824,-4.7938,-4.7984,-4.8003,-4.7755,-4.7753,-4.7752,-4.7751,0,0,-4.7451,-4.7505,-4.7528,-4.7554,-4.76,-4.7651,-4.7727,-4.7786,-4.7821,-4.7863,-4.7925,-4.8011,-4.7979,-4.8011,-4.8004,-4.8057,-4.817,-4.8016,-4.8017,-4.8043,-4.8303,-4.8329,-4.8351,-4.8154,-4.8157,-4.816,-4.83,0,-4.7589,-4.7722,-4.7718,-4.7842,-4.7904,-4.7873,-4.7939,-4.7973,-4.7984,-4.8037,-4.8048,-4.8108,-4.8063,-4.8082,-4.8133,-4.8146,-4.8222,-4.8136,-4.8211,-4.8214,-4.8202,-4.8375,-4.8402,-4.8533,-4.8318,-4.8321,-4.8323,0,-4.7768,-4.7816,-4.7946,-4.7983,-4.8008,-4.8068,-4.8121,-4.8173,-4.8211,-4.8215,-4.8251,-4.8235,-4.8311,-4.8248,-4.8351,-4.8292,-4.8323,-4.8334,-4.8339,-4.8345,-4.8275,-4.8386,-4.8574,-4.8594,-4.8352,-4.8349,-4.8347,0,-4.7884,-4.7982,-4.8072,-4.8095,-4.814,-4.8182,-4.8203,-4.8237,-4.8273,-4.8319,-4.8342,-4.8396,-4.8426,-4.8468,-4.8467,-4.8421,-4.8571,-4.8508,-4.8576,-4.8576,-4.8608,-4.8606,-4.8804,-4.8629,-4.8628,-4.8628,-4.8627,0,-4.8038,-4.8119,-4.8125,-4.8181,-4.827,-4.8264,-4.8352,-4.8368,-4.8399,-4.8456,-4.8432,-4.8486,-4.8482,-4.8536,-4.8536,-4.8621,-4.8634,-4.8639,-4.8638,-4.8641,-4.8641,-4.8661,-4.8652,-4.8633,-4.8632,-4.8631,-4.863,0,-4.8183,-4.8191,-4.8287,-4.8322,-4.8332,-4.8396,-4.8425,-4.8478,-4.8486,-4.8559,-4.8575,-4.8588,-4.8651,-4.8654,-4.8726,-4.8725,-4.8829,-4.8818,-4.8817,-4.8814,-4.8881,-4.8875,-4.9099,-4.9128,-4.8934,-4.8935,-4.8937,0,-4.8281,-4.8343,-4.8384,-4.8422,-4.8445,-4.8505,-4.8541,-4.8538,-4.8576,-4.8624,-4.867,-4.8731,-4.8779,-4.888,-4.8895,-4.895,-4.894,-4.9014,-4.8948,-4.8949,-4.8941,-4.8937,-4.8943,-4.9027,-4.903,-4.9031,-4.9033,0,-4.8455,-4.8455,-4.8509,-4.8565,-4.8609,-4.8652,-4.8692,-4.8724,-4.8725,-4.8769,-4.8833,-4.8871,-4.8945,-4.9005,-4.9058,-4.9077,-4.9055,-4.9054,-4.9072,-4.9076,-4.9073,-4.9075,-4.8852,-4.9048,-4.9047,-4.9046,-4.9045,-4.9044,-4.8579,-4.8632,-4.867,-4.873,-4.876,-4.8798,-4.8849,-4.8864,-4.8918,-4.8978,-4.8972,-4.9044,-4.9079,-4.9148,-4.9172,-4.9227,-4.9201,-4.9228,-4.9235,-4.9241,-4.9249,-4.9064,-4.9237,-4.9236,-4.9236,-4.9235,-4.9235,0,-4.8751,-4.8773,-4.8829,-4.8887,-4.8934,-4.891,-4.8953,-4.8994,-4.9058,-4.9093,-4.9141,-4.9215,-4.9273,-4.9293,-4.9349,-4.9389,-4.938,-4.9403,-4.94,-4.9405,-4.9268,-4.9247,-4.941,-4.941,-4.941,-4.941,-4.9409,-4.9409,-4.8846,-4.8934,-4.8939,-4.9042,-4.9063,-4.9134,-4.916,-4.9195,-4.9223,-4.9307,-4.9355,-4.9368,-4.9397,-4.9455,-4.9507,-4.9511,-4.9532,-4.956,-4.956,-4.9432,-4.9415,-4.9398,-4.9378,-4.9565,-4.9565,-4.9692,-4.9693,-4.9694]}]]